Duchifat 3
1 44854U 19089C   25099.11843247  .00068102  00000-0  16298-2 0  9992
2 44854  36.9467  24.3381 0002343 329.7920  30.2699 15.40366489293512
TO-108
1 44881U 19093C   25099.53409191  .00002164  00000-0  25684-3 0  9995
2 44881  97.7949 176.4600 0015226  74.4244 285.8651 14.85421999287012
FloripaSat 1
1 44885U 19093G   25099.83306413  .00012473  00000-0  10712-2 0  9994
2 44885  97.8149 187.3499 0010760  54.5657 305.6567 14.97553750287652
RS-44
1 44909U 19096E   25099.57403049  .00000027  00000-0  54336-4 0  9992
2 44909  82.5169 267.8150 0218436  78.3240 284.2284 12.79740051246880
UPMSat 2
1 46276U 20061E   25099.15959862  .00075620  00000-0  92696-3 0  9999
2 46276  97.2506 171.8432 0001915 145.8309 214.3071 15.60098661255864
SALSAT
1 46495U 20068K   25099.48325432  .00016031  00000-0  71257-3 0  9996
2 46495  97.8559  74.7549 0012470  24.6015 335.5812 15.21539436249237
CubeSX-Sirius-HSE
1 47951U 21022V   25099.87723640  .00203653  00000-0  18150-2 0  9991
2 47951  97.4239   9.5677 0010381 132.5983 227.6155 15.67758194224256
CubeSX-HSE
1 47952U 21022W   25099.83793831  .00201446  00000-0  17567-2 0  9996
2 47952  97.4242   9.7542 0010442 128.9178 231.3015 15.68300390224267
GRBAlpha
1 47959U 21022AD  25099.87234972  .00195235  00000-0  17327-2 0  9995
2 47959  97.4235   9.9203 0010179 132.0833 228.1295 15.67889482223090
Orbicraft-Zorkiy
1 47960U 21022AE  25099.59882032  .02225611  56407-2  21242-2 0  9991
2 47960  97.4119  14.2901 0008515 153.6290 206.5431 16.13230825224012
TUBIN
1 48900U 21059X   25099.56630698  .00064615  00000-0  98691-3 0  9994
2 48900  97.6715 264.1256 0003556 119.7675 240.3931 15.54206263210547
LEDSAT
1 49069U 21073D   25099.49222119  .00090343  00000-0  14820-2 0  9992
2 49069  97.3940 178.8548 0010616 292.9110  67.1021 15.52064945201934
CUTE
1 49263U 21088D   25099.18188270  .00026475  00000-0  57553-3 0  9995
2 49263  97.4546 173.7623 0010093 108.3323 251.9024 15.44260098194942
TeikyoSat 4
1 49396U 21102B   25099.48397177  .00003652  00000-0  24563-3 0  9997
2 49396  97.4175 140.1067 0012083 351.2516   8.8500 15.07286600187341
Z-Sat
1 49399U 21102E   25099.88443550  .00008174  00000-0  45562-3 0  9997
2 49399  97.3877 143.2266 0016924 318.1118  41.8818 15.13722478187798
KOSEN 1
1 49402U 21102H   25099.57152198  .00012737  00000-0  60635-3 0  9991
2 49402  97.3788 145.8939 0014402 293.8282  66.1442 15.19191878188029
HO-113
1 50466U 21131B   25099.57768475  .00001342  00000-0  43382-3 0  9996
2 50466  98.5083 189.2409 0003288 332.7798  27.3217 14.40707072172665
IRIS-A
1 51044U 22002BN  25099.45911864  .00214871  00000-0  15363-2 0  9996
2 51044  97.3308 176.6058 0000445 223.3479 136.7750 15.73108720180206
Foresail-1
1 52766U 22057AL  25099.34007958  .00180205  00000-0  14358-2 0  9992
2 52766  97.6028 244.8834 0004091 185.1303 174.9918 15.70617503160212
SNUGLITE 2
1 52899U 22065F   25099.62505284  .00002980  00000-0  59060-3 0  9997
2 52899  98.1580 242.2316 0006508 308.9012  51.1609 14.62989747147571
IO-117
1 53106U 22080B   25051.21822557 -.00000003  00000-0  00000+0 0  9995
2 53106  70.1434 106.3440 0008542  48.0089 312.1297  6.42557744 61200
UmKA 1 (RS40S)
1 57172U 23091G   25099.57622867  .00012516  00000-0  68284-3 0  9991
2 57172  97.5652 155.2919 0015100 179.7038 180.4205 15.14401558 98249
CubeBel-2 (EU11S)
1 57175U 23091K   25099.55619405  .00018091  00000-0  89599-3 0  9992
2 57175  97.5655 156.0742 0012942 187.4840 172.6203 15.17756518 98294
VERONIKA
1 58261U 23174F   25099.81768717  .00124709  00000-0  18195-2 0  9998
2 58261  97.4176 183.0523 0007323 249.1441 110.9029 15.55216727 79199
ENSO
1 58470U 23185J   25099.59667763  .00074007  00000-0  13776-2 0  9991
2 58470  97.3787 173.0656 0006479 289.7991  70.2561 15.48581217 75573
EIRSAT-1
1 58472U 23185L   25099.56981865  .00108826  00000-0  15976-2 0  9993
2 58472  97.3768 174.1230 0005964 283.7393  76.3197 15.55114836 75649
SONATE-2
1 59112U 24043Q   25099.33245942  .00033046  00000-0  10298-2 0  9996
2 59112  97.5035 229.4246 0010605 333.8276  26.2429 15.33134806 60940
MO-122
1 60209U 24125G   25099.09774179  .00028722  00000-0  88435-3 0  9992
2 60209  97.2887 311.4830 0019539   2.1591 357.9732 15.33409901 42529
GRBBeta
1 60237U 24128C   25099.50181920  .00008623  00000-0  65604-3 0  9999
2 60237  61.9914 292.4152 0046189  44.3485 316.1290 15.01924757 41021
Curium One
1 60242U 24128H   25099.49718552  .00015612  00000-0  11134-2 0  9994
2 60242  61.9816 291.5437 0045962  40.0173 320.4290 15.03910850 41040
ROBUSTA-3A
1 60243U 24128J   25099.61514894  .00013141  00000-0  95139-3 0  9995
2 60243  61.9887 291.7655 0044324  37.8326 322.5866 15.03516200 41052
CatSat
1 60246U 24125J   25099.33143692  .00016842  00000-0  58642-3 0  9997
2 60246  97.2667 311.5804 0042448 313.6662  46.1062 15.28869141 40624
HYPERVIEW-1G (RS66S)
1 61772U 24199AP  25099.55975258  .00035530  00000-0  11298-2 0  9998
2 61772  97.3639 328.6352 0015844  56.7515 303.5242 15.32403442 67608
AO-123
1 61781U 24199AY  25099.60735348  .00012656  00000-0  47389-3 0  9993
2 61781  97.3648 328.1338 0017662  57.9057 302.3893 15.27278306 67579
ZIMSAT 2
1 61783U 24199BA  25099.90978202  .00053711  00000-0  15408-2 0  9999
2 61783  97.3627 329.2225 0016366  54.4916 305.7851 15.35560276 70823
HADES-R (SO-124)
1 62690U 25009CK  25099.13509299  .00064193  00000-0  26424-2 0  9995
2 62690  97.4122 180.3931 0002270 264.2239  95.8739 15.23875219 12775
HYDRA-T
1 62692U 25009CM  25099.45714262  .00067184  00000-0  27477-2 0  9992
2 62692  97.4123 180.7260 0002328 257.4630 102.6347 15.24078039 12824
JINJUSat 1B
1 63210U 25052A   25099.49828506  .00022639  00000-0  10880-2 0  9994
2 63210  97.4498 354.4441 0005163 149.2914 210.8624 15.18819220  3974
NUSHSAT 1
1 63211U 25052B   25099.56470548  .00025449  00000-0  12210-2 0  9993
2 63211  97.4489 354.5058 0004986 153.1615 206.9878 15.18852846  3983
TEVEL2-4
1 63213U 25052D   25099.56785787  .00024847  00000-0  11998-2 0  9992
2 63213  97.4406 354.4767 0003536 161.2453 198.8912 15.18639326  3984
TEVEL2-5
1 63214U 25052E   25099.56791608  .00024512  00000-0  11840-2 0  9997
2 63214  97.4406 354.4768 0003541 161.2649 198.8716 15.18632048  3985
TEVEL2-6
1 63215U 25052F   25099.56846719  .00024490  00000-0  11842-2 0  9999
2 63215  97.4406 354.4762 0003544 162.5760 197.5596 15.18593912  3989
TEVEL2-1
1 63217U 25052H   25099.50556388  .00023948  00000-0  11644-2 0  9992
2 63217  97.4382 354.4002 0003121 177.5046 182.6204 15.18407382  3970
TEVEL2-2
1 63218U 25052J   25099.57160714  .00024376  00000-0  11853-2 0  9992
2 63218  97.4383 354.4647 0003136 177.9704 182.1543 15.18402257  3986
TEVEL2-3
1 63219U 25052K   25099.50571087  .00023965  00000-0  11655-2 0  9998
2 63219  97.4382 354.4000 0003146 178.1512 181.9734 15.18399082  3979
TEVEL2-8
1 63237U 25052AD  25099.59001606  .00022866  00000-0  11483-2 0  9990
2 63237  97.4444 354.4594 0006996 216.1543 143.9219 15.17271706  3987
TEVEL2-9
1 63238U 25052AE  25099.59044053  .00023688  00000-0  11904-2 0  9995
2 63238  97.4446 354.4594 0007092 216.0816 143.9940 15.17239966  3983
TEVEL2-7
1 63239U 25052AF  25099.59096721  .00023956  00000-0  12050-2 0  9996
2 63239  97.4444 354.4585 0007085 216.4063 143.6690 15.17203366  3986
